WB4FAY-4 Weather Reports


time (UTC)temp
C
wind
direction
speed
KPH
gust
KPH
rain 1hr
cm
rain 24hr
cm
rain mn
cm
humidity
%
barometer
mb
20260504181517 24 244 3.2 9.7 0.00 0.00 0.00 42 1016.6
20260504181017 24 247 0.0 8.0 0.00 0.00 0.00 42 1016.5
20260504180517 24 17 6.4 4.8 0.00 0.00 0.00 44 1016.5
20260504180017 24 172 0.0 9.7 0.00 0.00 0.00 42 1016.8
20260504175517 24 191 8.0 9.7 0.00 0.00 0.00 41 1016.9
20260504175017 25 257 0.0 4.8 0.00 0.00 0.00 46 1016.9
20260504174517 25 206 0.0 8.0 0.00 0.00 0.00 43 1016.9
20260504174017 25 164 0.0 6.4 0.00 0.00 0.00 43 1016.9
20260504173517 24 157 6.4 6.4 0.00 0.00 0.00 43 1017.0
20260504173017 24 222 3.2 8.0 0.00 0.00 0.00 43 1017.1
20260504172517 24 134 0.0 6.4 0.00 0.00 0.00 44 1017.1
20260504172018 23 134 3.2 11.3 0.00 0.00 0.00 44 1017.2
20260504171517 23 0 0.0 0.0 0.00 0.00 0.00 45 1017.3
20260504171017 23 189 0.0 4.8 0.00 0.00 0.00 45 1017.5
20260504170518 23 240 0.0 4.8 0.00 0.00 0.00 45 1017.6
20260504151017 20 232 0.0 4.8 0.00 0.00 0.00 57 1018.5
20260504150518 19 237 3.2 4.8 0.00 0.00 0.00 57 1018.5
20260504141017 17 179 1.6 9.7 0.00 0.00 0.00 64 1019.0
20260504140517 16 199 0.0 4.8 0.00 0.00 0.00 64 1019.1
20260504130517 12 0 0.0 0.0 0.00 0.00 0.00 88 1019.2
20260504110517 10 0 0.0 0.0 0.00 0.00 0.00 91 1018.4
20260504100517 10 0 0.0 0.0 0.00 0.00 0.00 91 1018.4
20260504081517 10 0 0.0 0.0 0.00 0.00 0.00 88 1018.1
20260504081017 10 0 0.0 0.0 0.00 0.00 0.00 88 1018.2
20260504080517 10 0 0.0 0.0 0.00 0.00 0.00 88 1018.3
20260504050517 11 0 0.0 0.0 0.00 0.00 0.00 80 1019.3
20260504050017 11 0 0.0 0.0 0.00 0.00 0.00 80 1019.3
20260504045517 11 0 0.0 0.0 0.00 0.00 0.00 80 1019.3
20260504045017 11 0 0.0 0.0 0.00 0.00 0.00 80 1019.3
20260504044517 12 0 0.0 0.0 0.00 0.00 0.00 80 1019.3
20260504044017 12 0 0.0 0.0 0.00 0.00 0.00 79 1019.4
20260504043517 12 0 0.0 0.0 0.00 0.00 0.00 79 1019.4
20260504043017 12 0 0.0 0.0 0.00 0.00 0.00 79 1019.4
20260504042517 12 0 0.0 0.0 0.00 0.00 0.00 78 1019.5
20260504042017 12 0 0.0 0.0 0.00 0.00 0.00 77 1019.5
20260504041517 12 0 0.0 0.0 0.00 0.00 0.00 77 1019.6
20260504041017 12 0 0.0 0.0 0.00 0.00 0.00 77 1019.5
20260504040517 12 0 0.0 0.0 0.00 0.00 0.00 77 1019.5
20260504040017 12 0 0.0 0.0 0.00 0.00 0.00 76 1019.6
20260504035518 12 0 0.0 0.0 0.00 0.00 0.00 77 1019.6
20260504035017 12 0 0.0 0.0 0.00 0.00 0.00 76 1019.7
20260504034517 12 0 0.0 0.0 0.00 0.00 0.00 76 1019.7
20260504034017 13 0 0.0 0.0 0.00 0.00 0.00 76 1019.7
20260504033517 13 0 0.0 0.0 0.00 0.00 0.00 76 1019.7
20260504033017 13 0 0.0 0.0 0.00 0.00 0.00 76 1019.8
20260504032517 13 0 0.0 0.0 0.00 0.00 0.00 76 1019.8
20260504032017 13 0 0.0 0.0 0.00 0.00 0.00 75 1019.8
20260504031517 13 0 0.0 0.0 0.00 0.00 0.00 75 1019.8
20260504031017 13 0 0.0 0.0 0.00 0.00 0.00 75 1019.8
20260504030517 13 0 0.0 0.0 0.00 0.00 0.00 74 1019.8
20260504030017 13 0 0.0 0.0 0.00 0.00 0.00 74 1019.8
20260504025517 13 0 0.0 0.0 0.00 0.00 0.00 74 1019.7
20260504025017 13 0 0.0 0.0 0.00 0.00 0.00 73 1019.6
20260504024517 13 0 0.0 0.0 0.00 0.00 0.00 73 1019.6
20260504024017 13 0 0.0 0.0 0.00 0.00 0.00 73 1019.5
20260504023517 13 0 0.0 0.0 0.00 0.00 0.00 72 1019.4
20260504023017 14 0 0.0 0.0 0.00 0.00 0.00 72 1019.4
20260504022517 14 0 0.0 0.0 0.00 0.00 0.00 71 1019.3
20260504022017 14 0 0.0 0.0 0.00 0.00 0.00 70 1019.3
20260504021516 14 0 0.0 0.0 0.00 0.00 0.00 70 1019.2
20260504021017 14 0 0.0 0.0 0.00 0.00 0.00 69 1019.2
20260504020517 15 0 0.0 0.0 0.00 0.00 0.00 68 1019.2
20260504020017 15 0 0.0 0.0 0.00 0.00 0.00 68 1019.2
20260504015517 15 0 0.0 0.0 0.00 0.00 0.00 67 1019.1
20260504015017 15 0 0.0 0.0 0.00 0.00 0.00 67 1019.1
20260504014517 15 0 0.0 0.0 0.00 0.00 0.00 66 1019.1
20260504014017 15 0 0.0 0.0 0.00 0.00 0.00 66 1019.2
20260504013522 15 0 0.0 0.0 0.00 0.00 0.00 64 1019.0
20260504013018 16 0 0.0 0.0 0.00 0.00 0.00 63 1018.9
20260504012517 16 0 0.0 0.0 0.00 0.00 0.00 62 1018.8
20260504012017 16 0 0.0 0.0 0.00 0.00 0.00 63 1018.7
20260504011517 16 0 0.0 0.0 0.00 0.00 0.00 61 1018.8
20260504011017 16 0 0.0 0.0 0.00 0.00 0.00 60 1018.8
20260504010517 16 0 0.0 0.0 0.00 0.00 0.00 60 1018.8
20260504010017 16 0 0.0 0.0 0.00 0.00 0.00 57 1018.6
20260504005517 17 0 0.0 0.0 0.00 0.00 0.00 57 1018.6
20260504005017 17 0 0.0 0.0 0.00 0.00 0.00 56 1018.5
20260504004517 17 0 0.0 0.0 0.00 0.00 0.00 54 1018.5
20260504004017 17 0 0.0 0.0 0.00 0.00 0.00 53 1018.4
20260504003517 18 0 0.0 0.0 0.00 0.00 0.00 54 1018.4
20260504003017 18 0 0.0 0.0 0.00 0.00 0.00 51 1018.3
20260504002517 18 0 0.0 0.0 0.00 0.00 0.00 50 1018.3
20260504002017 18 0 0.0 0.0 0.00 0.00 0.00 49 1018.3
20260504001517 18 0 0.0 0.0 0.00 0.00 0.00 49 1018.3
20260504001017 18 0 0.0 0.0 0.00 0.00 0.00 47 1018.3
20260504000517 19 0 0.0 0.0 0.00 0.00 0.00 48 1018.3
20260504000017 19 0 0.0 0.0 0.00 0.00 0.00 46 1018.3
20260503235517 19 0 0.0 0.0 0.00 0.00 0.00 45 1018.3
20260503235016 20 0 0.0 0.0 0.00 0.00 0.00 47 1018.3
20260503234517 20 0 0.0 0.0 0.00 0.00 0.00 45 1018.2
20260503234017 20 0 0.0 0.0 0.00 0.00 0.00 43 1018.2
20260503233517 20 0 0.0 0.0 0.00 0.00 0.00 43 1018.2
20260503233017 20 0 0.0 0.0 0.00 0.00 0.00 42 1018.2
20260503232517 20 0 0.0 0.0 0.00 0.00 0.00 41 1018.1
20260503232016 20 0 0.0 0.0 0.00 0.00 0.00 40 1018.2
20260503231517 20 0 0.0 0.0 0.00 0.00 0.00 39 1018.2
20260503231017 20 325 0.0 8.0 0.00 0.00 0.00 39 1018.3
20260503230517 21 330 0.0 4.8 0.00 0.00 0.00 39 1018.3
20260503230017 21 332 3.2 9.7 0.00 0.00 0.00 37 1018.3
20260503225517 21 18 0.0 9.7 0.00 0.00 0.00 37 1018.3
20260503225017 21 319 3.2 9.7 0.00 0.00 0.00 35 1018.3
20260503224517 22 313 0.0 8.0 0.00 0.00 0.00 34 1018.4
20260503224017 22 330 1.6 8.0 0.00 0.00 0.00 34 1018.5
20260503223517 22 268 0.0 8.0 0.00 0.00 0.00 36 1018.4
20260503223017 22 270 0.0 8.0 0.00 0.00 0.00 35 1018.4
20260503222517 22 284 6.4 8.0 0.00 0.00 0.00 37 1018.5
20260503222017 22 339 0.0 9.7 0.00 0.00 0.00 37 1018.5
20260503221518 22 339 3.2 14.5 0.00 0.00 0.00 35 1018.6
20260503221017 22 309 0.0 9.7 0.00 0.00 0.00 37 1018.6
20260503220517 22 16 4.8 8.0 0.00 0.00 0.00 34 1018.6
20260503220017 22 257 0.0 14.5 0.00 0.00 0.00 33 1018.7
20260503215518 22 330 0.0 6.4 0.00 0.00 0.00 34 1018.6
20260503215017 22 352 6.4 9.7 0.00 0.00 0.00 34 1018.7
20260503214517 22 311 8.0 14.5 0.00 0.00 0.00 32 1018.8
20260503214017 22 332 3.2 14.5 0.00 0.00 0.00 33 1018.8
20260503213517 22 328 8.0 12.9 0.00 0.00 0.00 34 1018.8
20260503213017 23 335 8.0 12.9 0.00 0.00 0.00 33 1019.0
20260503212517 23 179 3.2 9.7 0.00 0.00 0.00 35 1019.0
20260503212017 22 277 3.2 9.7 0.00 0.00 0.00 35 1019.0
20260503211517 22 356 1.6 9.7 0.00 0.00 0.00 35 1019.1
20260503211017 22 347 8.0 9.7 0.00 0.00 0.00 35 1019.3
20260503210518 22 347 6.4 9.7 0.00 0.00 0.00 34 1019.3
20260503210017 22 8 3.2 14.5 0.00 0.00 0.00 33 1019.4
20260503205517 22 292 11.3 8.0 0.00 0.00 0.00 35 1019.3
20260503205017 22 251 4.8 14.5 0.00 0.00 0.00 36 1019.4
20260503204517 22 3 1.6 16.1 0.00 0.00 0.00 36 1019.5
20260503204017 22 329 3.2 12.9 0.00 0.00 0.00 36 1019.7
20260503203517 22 326 6.4 17.7 0.00 0.00 0.00 36 1019.7
20260503203018 22 145 3.2 6.4 0.00 0.00 0.00 36 1019.8
20260503202517 21 302 6.4 14.5 0.00 0.00 0.00 36 1020.0
20260503202017 21 7 8.0 14.5 0.00 0.00 0.00 37 1020.0
20260503201517 21 350 6.4 17.7 0.00 0.00 0.00 37 1020.1
20260503201018 21 8 4.8 12.9 0.00 0.00 0.00 37 1020.2
20260503200517 21 319 4.8 12.9 0.00 0.00 0.00 38 1020.3
20260503200017 21 58 8.0 16.1 0.00 0.00 0.00 39 1020.3
20260503195517 21 357 8.0 14.5 0.00 0.00 0.00 39 1020.4
20260503195017 21 6 6.4 16.1 0.00 0.00 0.00 39 1020.5
20260503194517 21 8 3.2 9.7 0.00 0.00 0.00 39 1020.6
20260503194017 21 295 1.6 8.0 0.00 0.00 0.00 39 1020.8
20260503193517 21 346 0.0 8.0 0.00 0.00 0.00 40 1020.9
20260503193017 21 360 3.2 11.3 0.00 0.00 0.00 41 1021.0
20260503192517 21 89 3.2 12.9 0.00 0.00 0.00 41 1020.9
20260503192017 20 343 11.3 12.9 0.00 0.00 0.00 40 1021.0
20260503191517 20 298 3.2 9.7 0.00 0.00 0.00 41 1021.1
20260503191017 20 85 3.2 8.0 0.00 0.00 0.00 42 1021.3
20260503190517 20 4 4.8 9.7 0.00 0.00 0.00 41 1021.3
20260503190018 20 109 4.8 8.0 0.00 0.00 0.00 41 1021.5
20260503185517 20 356 4.8 16.1 0.00 0.00 0.00 40 1021.5
20260503185017 20 3 12.9 14.5 0.00 0.00 0.00 39 1021.8
20260503184517 20 352 4.8 19.3 0.00 0.00 0.00 39 1021.8
20260503184017 20 360 6.4 14.5 0.00 0.00 0.00 38 1021.9
20260503183518 20 301 12.9 11.3 0.00 0.00 0.00 38 1021.9
20260503183017 20 42 3.2 20.9 0.00 0.00 0.00 39 1022.0
20260503182517 20 3 6.4 16.1 0.00 0.00 0.00 38 1022.1
20260503182017 20 335 3.2 12.9 0.00 0.00 0.00 40 1022.2